This is the latest recevied weather packets stored in our database for station/object K6POO-1. If no packets are shown the sender has not sent any weather packets the latest 10 day(s).
| Time | Temp. | Humidity | Pressure | Rain* | Wind** | Luminosity | Snow |
|---|---|---|---|---|---|---|---|
| 1788363680 | 18.33° C | 76% | 1017.3 hPa | 0 mm | - | 106 W/m² | - |
| 1788363380 | 18.33° C | 76% | 1017.3 hPa | 0 mm | - | 117 W/m² | - |
| 1788363074 | 18.33° C | 76% | 1017.2 hPa | 0 mm | - | 129 W/m² | - |
| 1788362771 | 18.33° C | 76% | 1017.3 hPa | 0 mm | - | 110 W/m² | - |
| 1788362466 | 18.33° C | 76% | 1017.4 hPa | 0 mm | - | 101 W/m² | - |
| 1788362162 | 18.33° C | 76% | 1017.1 hPa | 0 mm | - | 94 W/m² | - |
| 1788361861 | 18.33° C | 76% | 1017.2 hPa | 0 mm | - | 91 W/m² | - |
| 1788361556 | 17.78° C | 76% | 1017.1 hPa | 0 mm | - | 103 W/m² | - |
| 1788361251 | 17.78° C | 77% | 1016.9 hPa | 0 mm | - | 139 W/m² | - |
| 1788360946 | 17.78° C | 77% | 1016.9 hPa | 0 mm | - | 133 W/m² | - |
| 1788360640 | 17.78° C | 78% | 1016.6 hPa | 0 mm | - | 88 W/m² | - |
| 1788360337 | 17.78° C | 79% | 1016.7 hPa | 0 mm | - | 145 W/m² | - |
| 1788360037 | 16.67° C | 81% | 1016.6 hPa | 0 mm | - | 109 W/m² | - |
| 1788359732 | 16.67° C | 81% | 1016.6 hPa | 0 mm | - | 53 W/m² | - |
| 1788359428 | 16.67° C | 82% | 1016.7 hPa | 0 mm | - | 35 W/m² | - |
| 1788359123 | 16.67° C | 82% | 1016.6 hPa | 0 mm | - | 36 W/m² | - |
| 1788358819 | 16.11° C | 82% | 1016.7 hPa | 0 mm | - | 39 W/m² | - |
| 1788358519 | 16.11° C | 82% | 1016.8 hPa | 0 mm | - | 22 W/m² | - |
| 1788358214 | 16.11° C | 82% | 1016.5 hPa | 0 mm | - | 18 W/m² | - |
| 1788357914 | 16.11° C | 81% | 1016.7 hPa | 0 mm | - | 15 W/m² | - |
| 1788357609 | 16.11° C | 81% | 1016.7 hPa | 0 mm | - | 11 W/m² | - |
| 1788357303 | 16.11° C | 80% | 1016.7 hPa | 0 mm | - | 8 W/m² | - |
| 1788356997 | 16.67° C | 80% | 1016.5 hPa | 0 mm | - | 6 W/m² | - |
| 1788356693 | 16.67° C | 80% | 1016.6 hPa | 0 mm | - | 4 W/m² | - |
| 1788356388 | 16.67° C | 79% | 1016.6 hPa | 0 mm | - | 2 W/m² | - |
* Rain latest hour (hover to see other rain measurements)
** Current wind speed in m/s (hover to see current wind gust speed)